Location: Dillon
(41.1766°N, 107.0923°W)
Time: 21:28:09
(UTC+00:00)

Gurwin Techsat 1B - Visible Passes

Search period start: 28 June 2022 00:00
Search period end: 08 July 2022 00:00
Orbit: 811 x 814 km, 98.8° (Epoch: 28 June)

Date Brightness Start Highest point End Pass type
(mag) Time Alt. Az. Time Alt. Az. Time Alt. Az.
28 Jun 10.9 08:19:55 10° ENE 08:22:29 13° E 08:25:01 10° ESE visible
28 Jun 8.6 09:57:37 10° N 10:02:56 74° WNW 10:06:49 19° SSW visible
29 Jun 8.8 09:34:41 10° NNE 09:40:00 69° ESE 09:43:34 21° S visible
30 Jun 9.5 09:11:57 10° NNE 09:17:00 42° E 09:20:20 20° SSE visible
30 Jun 9.9 10:52:22 10° N 10:56:39 25° WNW 11:00:55 10° WSW visible
01 Jul 10.2 08:49:29 10° NE 08:53:54 26° E 08:57:04 16° SE visible
01 Jul 9.3 10:28:59 10° N 10:33:54 39° WNW 10:38:16 13° SW visible
02 Jul 10.8 08:27:31 10° NE 08:30:45 16° E 08:33:49 10° SE visible
02 Jul 8.7 10:05:49 10° N 10:11:05 63° WNW 10:15:00 18° SSW visible
03 Jul 8.6 09:42:49 10° NNE 09:48:10 81° ESE 09:51:45 22° S visible
04 Jul 9.2 09:20:01 10° NNE 09:25:12 50° E 09:28:29 21° SSE visible
04 Jul 10.1 11:00:45 10° NNW 11:04:44 22° WNW 11:08:42 10° WSW visible
05 Jul 10.0 08:57:26 10° NE 09:02:08 31° E 09:05:14 18° SSE visible
05 Jul 9.5 10:37:16 10° N 10:42:01 34° WNW 10:46:26 11° SW visible
06 Jul 10.6 08:35:15 10° NE 08:39:00 19° E 08:41:58 13° SE visible
06 Jul 8.9 10:14:02 10° N 10:19:13 54° WNW 10:23:10 17° SW visible
07 Jul 11.1 08:14:10 10° ENE 08:15:47 11° E 08:17:23 10° ESE visible
07 Jul 8.6 09:51:00 10° NNE 09:56:20 86° WNW 09:59:54 22° SSW visible
